Volver al catálogo

SL-14 DEB

ActivoPO
NORAD 26004·DEBRIS·🇷🇺 Russia

Lanzado Sep 28, 1991 desde Plesetsk Cosmodrome

Loading…

Próximos Pases (próximas 24 horas)

TLE

ActualizadoSource: Space-Track

Época: Sep 14, 2026, 01:03 UTC

1 26004U 91068P   26257.04381352  .00001667  00000-0  70668-2 0  9993
2 26004  82.5715 271.9502 0109602 170.9949 217.5549 12.80335691243487

Sigue SL-14 DEB en tiempo real con AllMySat

Download on the App Store